When you browse on this site, cookies collect data to enhance your experience and personalize the content and advertising you see.
Visit our Privacy Policy to learn more. By continuing to use the site, you agree to this use of cookies and data.
  • In Germany
  • List of Countries
  • For 7 days
  • Water Temperature
  • Weather Map
  • Weather Widgets
  • user-avatar
    Login

    Hourly Weather Eisenstadt

    Today, 1 June, Monday

    Time Temperature Precipitation Wind Pressure Humidity
    00:00 +10°C° 0.1 mm 4 mps 723 mmHg 89%
    01:00 +10°C° 0 mm 4 mps 723 mmHg 88%
    02:00 +10°C° 0 mm 4 mps 723 mmHg 89%
    03:00 +10°C° 0 mm 4 mps 723 mmHg 90%
    04:00 +8°C° 0 mm 4 mps 723 mmHg 91%
    05:00 +11°C° 0 mm 4 mps 723 mmHg 86%
    06:00 +12°C° 0 mm 4 mps 723 mmHg 81%
    07:00 +14°C° 0 mm 4 mps 724 mmHg 76%
    08:00 +15°C° 0.2 mm 5 mps 724 mmHg 70%
    09:00 +16°C° 0.2 mm 5 mps 724 mmHg 65%
    10:00 +19°C° 0.2 mm 5 mps 724 mmHg 59%
    11:00 +19°C° 0.1 mm 5 mps 724 mmHg 56%
    12:00 +20°C° 0.1 mm 5 mps 724 mmHg 53%
    13:00 +21°C° 0.1 mm 5 mps 724 mmHg 50%
    14:00 +21°C° 0.1 mm 5 mps 723 mmHg 52%
    15:00 +20°C° 0.1 mm 5 mps 723 mmHg 54%
    16:00 +20°C° 0.1 mm 5 mps 723 mmHg 56%
    17:00 +19°C° 0.1 mm 5 mps 723 mmHg 63%
    18:00 +17°C° 0.1 mm 4 mps 722 mmHg 70%
    19:00 +16°C° 0.1 mm 3 mps 722 mmHg 76%
    20:00 +14°C° 0 mm 3 mps 723 mmHg 77%
    21:00 +13°C° 0 mm 3 mps 723 mmHg 79%
    22:00 +12°C° 0 mm 4 mps 723 mmHg 80%
    23:00 +12°C° 0 mm 4 mps 723 mmHg 77%

    Tomorrow, 2 June, Tuesday

    Time Temperature Precipitation Wind Pressure Humidity
    00:00 +11°C° 0 mm 4 mps 723 mmHg 75%
    01:00 +10°C° 0 mm 4 mps 723 mmHg 73%
    02:00 +10°C° 0 mm 4 mps 723 mmHg 75%
    03:00 +9°C° 0 mm 3 mps 723 mmHg 77%
    04:00 +8°C° 0 mm 3 mps 723 mmHg 79%
    05:00 +10°C° 0 mm 3 mps 723 mmHg 73%
    06:00 +12°C° 0 mm 3 mps 723 mmHg 67%
    07:00 +14°C° 0 mm 4 mps 723 mmHg 60%
    08:00 +15°C° 0 mm 4 mps 723 mmHg 58%
    09:00 +15°C° 0 mm 4 mps 722 mmHg 56%
    10:00 +17°C° 0 mm 4 mps 722 mmHg 54%
    11:00 +16°C° 0.3 mm 5 mps 722 mmHg 57%
    12:00 +17°C° 0.3 mm 5 mps 721 mmHg 59%
    13:00 +17°C° 0.3 mm 6 mps 721 mmHg 62%
    14:00 +17°C° 0.3 mm 5 mps 721 mmHg 61%
    15:00 +17°C° 0.3 mm 5 mps 720 mmHg 60%
    16:00 +17°C° 0.3 mm 5 mps 720 mmHg 60%
    17:00 +17°C° 0.1 mm 4 mps 720 mmHg 65%
    18:00 +14°C° 0.1 mm 3 mps 720 mmHg 70%
    19:00 +14°C° 0.1 mm 2 mps 720 mmHg 74%
    20:00 +13°C° 0 mm 2 mps 720 mmHg 76%
    21:00 +12°C° 0 mm 2 mps 720 mmHg 78%
    22:00 +10°C° 0 mm 2 mps 720 mmHg 80%
    23:00 +10°C° 0 mm 2 mps 720 mmHg 80%

    Day after tomorrow, 3 June, Wednesday

    Time Temperature Precipitation Wind Pressure Humidity
    00:00 +9°C° 0 mm 2 mps 719 mmHg 80%
    01:00 +9°C° 0 mm 2 mps 719 mmHg 80%
    02:00 +9°C° 0 mm 2 mps 719 mmHg 79%
    03:00 +9°C° 0 mm 2 mps 718 mmHg 79%
    04:00 +10°C° 0 mm 1 mps 718 mmHg 79%
    05:00 +12°C° 0 mm 1 mps 718 mmHg 74%
    06:00 +14°C° 0 mm 2 mps 718 mmHg 70%
    07:00 +15°C° 0 mm 2 mps 718 mmHg 66%
    08:00 +17°C° 0.1 mm 2 mps 717 mmHg 62%
    09:00 +18°C° 0.1 mm 2 mps 717 mmHg 59%
    10:00 +19°C° 0.1 mm 2 mps 717 mmHg 55%
    11:00 +20°C° 0.5 mm 2 mps 717 mmHg 56%
    12:00 +20°C° 0.5 mm 3 mps 716 mmHg 57%
    13:00 +21°C° 0.5 mm 3 mps 716 mmHg 57%
    14:00 +20°C° 0.7 mm 2 mps 715 mmHg 60%
    15:00 +20°C° 0.7 mm 2 mps 715 mmHg 62%
    16:00 +20°C° 0.7 mm 2 mps 715 mmHg 65%
    17:00 +20°C° 0.2 mm 1 mps 715 mmHg 70%
    18:00 +18°C° 0.2 mm 1 mps 714 mmHg 75%
    19:00 +16°C° 0.2 mm 1 mps 714 mmHg 80%
    20:00 +15°C° 0 mm 1 mps 714 mmHg 82%
    21:00 +14°C° 0 mm 1 mps 714 mmHg 85%
    22:00 +13°C° 0 mm 1 mps 714 mmHg 87%
    23:00 +13°C° 0 mm 1 mps 713 mmHg 88%

    4 June, Thursday

    Time Temperature Precipitation Wind Pressure Humidity
    00:00 +12°C° 0 mm 1 mps 713 mmHg 89%
    01:00 +12°C° 0 mm 1 mps 713 mmHg 90%
    02:00 +12°C° 0 mm 1 mps 712 mmHg 91%
    03:00 +11°C° 0 mm 1 mps 712 mmHg 91%
    04:00 +10°C° 0 mm 0 mps 712 mmHg 92%
    05:00 +12°C° 0 mm 1 mps 712 mmHg 89%
    06:00 +14°C° 0 mm 1 mps 712 mmHg 86%
    07:00 +15°C° 0 mm 1 mps 712 mmHg 83%
    08:00 +18°C° 0 mm 1 mps 712 mmHg 78%
    09:00 +18°C° 0 mm 2 mps 712 mmHg 72%
    10:00 +20°C° 0 mm 2 mps 712 mmHg 66%
    11:00 +20°C° 0.2 mm 2 mps 712 mmHg 66%
    12:00 +21°C° 0.2 mm 3 mps 711 mmHg 65%
    13:00 +22°C° 0.2 mm 3 mps 711 mmHg 64%
    14:00 +22°C° 0.3 mm 4 mps 710 mmHg 62%
    15:00 +22°C° 0.3 mm 5 mps 710 mmHg 60%
    16:00 +23°C° 0.3 mm 6 mps 710 mmHg 57%
    17:00 +21°C° 0 mm 6 mps 709 mmHg 62%
    18:00 +20°C° 0 mm 6 mps 708 mmHg 66%
    19:00 +17°C° 0 mm 6 mps 708 mmHg 70%
    20:00 +17°C° 0 mm 6 mps 708 mmHg 71%
    21:00 +16°C° 0 mm 6 mps 708 mmHg 72%
    22:00 +16°C° 0 mm 6 mps 708 mmHg 73%
    23:00 +15°C° 0 mm 5 mps 708 mmHg 75%

    5 June, Friday

    Time Temperature Precipitation Wind Pressure Humidity
    00:00 +15°C° 0 mm 4 mps 708 mmHg 77%
    01:00 +14°C° 0 mm 3 mps 708 mmHg 80%
    02:00 +15°C° 0 mm 2 mps 708 mmHg 83%
    03:00 +14°C° 0 mm 2 mps 708 mmHg 86%
    04:00 +13°C° 0 mm 1 mps 708 mmHg 90%
    05:00 +13°C° 0.6 mm 1 mps 708 mmHg 91%
    06:00 +14°C° 0.6 mm 1 mps 708 mmHg 92%
    07:00 +14°C° 0.6 mm 2 mps 708 mmHg 94%
    08:00 +14°C° 1.8 mm 2 mps 708 mmHg 94%
    09:00 +14°C° 1.8 mm 2 mps 709 mmHg 93%
    10:00 +14°C° 1.8 mm 2 mps 709 mmHg 93%
    11:00 +14°C° 2.6 mm 2 mps 709 mmHg 94%
    12:00 +13°C° 2.6 mm 2 mps 709 mmHg 94%
    13:00 +12°C° 2.6 mm 3 mps 710 mmHg 95%
    14:00 +11°C° 1.7 mm 4 mps 710 mmHg 93%
    15:00 +10°C° 1.7 mm 5 mps 711 mmHg 91%
    16:00 +9°C° 1.7 mm 6 mps 711 mmHg 90%
    17:00 +9°C° 0.3 mm 6 mps 712 mmHg 88%
    18:00 +8°C° 0.3 mm 5 mps 712 mmHg 87%
    19:00 +8°C° 0.3 mm 5 mps 713 mmHg 86%
    20:00 +8°C° 0 mm 5 mps 714 mmHg 84%
    21:00 +8°C° 0 mm 4 mps 715 mmHg 82%
    22:00 +8°C° 0 mm 4 mps 715 mmHg 80%
    23:00 +8°C° 0 mm 4 mps 716 mmHg 79%

    6 June, Saturday

    Time Temperature Precipitation Wind Pressure Humidity
    00:00 +8°C° 0 mm 4 mps 716 mmHg 79%
    01:00 +8°C° 0 mm 3 mps 716 mmHg 78%
    02:00 +8°C° 0 mm 3 mps 716 mmHg 80%
    03:00 +7°C° 0 mm 3 mps 717 mmHg 81%
    04:00 +7°C° 0 mm 2 mps 717 mmHg 82%
    05:00 +9°C° 0 mm 2 mps 717 mmHg 76%
    06:00 +12°C° 0 mm 2 mps 718 mmHg 71%
    07:00 +14°C° 0 mm 2 mps 718 mmHg 65%
    08:00 +15°C° 0 mm 2 mps 718 mmHg 59%
    09:00 +17°C° 0 mm 2 mps 719 mmHg 52%
    10:00 +19°C° 0 mm 3 mps 719 mmHg 46%
    11:00 +19°C° 0 mm 2 mps 719 mmHg 48%
    12:00 +19°C° 0 mm 2 mps 719 mmHg 50%
    13:00 +19°C° 0 mm 2 mps 719 mmHg 53%
    14:00 +20°C° 0 mm 1 mps 718 mmHg 55%
    15:00 +20°C° 0 mm 1 mps 718 mmHg 57%
    16:00 +20°C° 0 mm 1 mps 718 mmHg 59%
    17:00 +19°C° 0 mm 1 mps 718 mmHg 63%
    18:00 +18°C° 0 mm 1 mps 718 mmHg 66%
    19:00 +16°C° 0 mm 1 mps 718 mmHg 70%
    20:00 +15°C° 0 mm 1 mps 718 mmHg 70%
    21:00 +14°C° 0 mm 1 mps 719 mmHg 71%
    22:00 +14°C° 0 mm 1 mps 719 mmHg 71%
    23:00 +13°C° 0 mm 1 mps 719 mmHg 71%
    Show more